Starlink 31315

operational
NORAD ID: 58884 Int'l Des: 2024-020 Owner: SPXS Country: US Constellation: starlink
LEOCIRCULAR

About Starlink 31315

Description loading...

Live Position

Loading 3D Globe...

Upcoming Passes

Altitude History

Altitude vs Time

uPlot chart will show altitude changes over time

Two-Line Element Set

1 58884U 24020J 25350.34129785 .00002959 00000-0 11200-3 0 9997
2 58884 53.1623 323.6175 0001234 88.9126 271.2016 15.30197807105675
Epoch: Dec 16, 2025 • Age: 24 hours

Current Status

Altitude 477.8 km
Velocity 7.63 km/s
Sub-Earth Point 38.34°N, 107.36°W
Launch Date Jan 29, 2024
Age 1.8 years
Type internet

Technical Details

Classification Payload
Mass 730.00 kg
Dry Mass 700.00 kg
Total Mass 730.00 kg
Length 0.30 m
Diameter 4.10 m
Span 29.00 m
Shape Box + pan
Manufacturer SPXS
Bus Type Starlink V2M
Phase Status In Orbit
Owner/State SPXS/US

Large Constellations

Loading constellations...